THOR ABLESTAR DEB, 1522

Orbit data source: Space-Track

THOR ABLESTAR DEB, 1522 is space debris in LEO originally from a launch on Fri, 13 Aug 1965 UTC launched from the Air Force Western Test Range (AFWTR). Debris objects in space refer to the collection of defunct objects orbiting the Earth. Examples of debris include non-operational satellites, rocket bodies, and fragments generated from explosions, collisions, or faulty payload assembly.

Loading next visibility...
Identifier
1522, 1965-065L
Orbit
LEO
Last TLE update
7 hours ago
Origin
Manufacturer
Unknown
Mission
Spacecraft
Bus & Motor
Unknown
Mass
Unknown
Launch date (UTC)
1965-08-13 (60 years ago)
Launch vehicle
Unknown
Launch site
Air Force Western Test Range (AFWTR)
Object type
Payload
Rocket body
Debris
Shape & HBR
Unknown
Radar Cross Section
Medium (>0.1 m² and <1 m²)

Expand to show TLE details & history

TLE from 7 hours ago
0 THOR ABLESTAR DEB
1 01522U 65065L   25128.90929200  .00000067  00000-0  11733-3 0  9992
2 01522  90.0881 123.3263 0069412 304.2407  90.3849 13.33815824905904
Epoch: 2025-05-08T21:49Z
Definitive object data (Epoch: 2025-05-08T21:49:22.828Z)
Latitude
35.48719°
Longitude
-71.05433°
Altitude
1,137.913 km
Speed
7.287 km/s
True Right ascension
08h 13m 03s
True Declination
35° 19' 59"
Sunlit
Object was in daylight at TLE epoch
Visualization TLE readout
Latitude
35.75786°
Longitude
-71.05237°
Altitude
1,138.979 km
Speed
7.286 km/s
Apparent Right ascension
05h 14m 35s
Apparent Declination
2° 34' 07"
Sunlit
Object is in daylight
Visualization observer readout
Local Sidereal Time
13:10:09
Azimuth
291.476° WNW
Elevation
-19.967°
Doppler factor
1
Orbital elements
Apogee altitude
1,181.59 km
Perigee altitude
1,077.366 km
Semi-major axis
7,507.615 km
Eccentricity
0.0069412
Inclination
90.0881°
RAAN
123.3263°
Arg. of periapsis
304.2407°
True anomaly
91.18021°
Mean anomaly
90.3849°
Eccentric anomaly
90.78256°
Mean motion
3.33649 °/min
BSTAR
0.00011733
Orbital period
107.9 mins
Loading maneuver chart data...
Loading SW <> Apogee altitude chart data...
Loading historical data...
Loading historical data...
Loading historical data...
Loading historical data...
Loading historical data...
Loading historical data...
Loading historical data...

THOR ABLESTAR DEB Visibility forecast

Observer location: undefined°, undefined°

Span
Click to sort rows by Start time (UTC) header in descending order
Start Az.
Max El. time (UTC)
Max El. Az.
Max El.
End time (UTC)
End Az.
11 mins2025-05-09 10:51:33.492Z25.631° NE2025-05-09 10:57:33.492Z88.964° E26.949°2025-05-09 11:02:33.492Z138.733° SSE
12 mins2025-05-09 12:39:33.492Z346.248° N2025-05-09 12:44:33.492Z290.718° WNW35.887°2025-05-09 12:51:33.492Z210.048° SW
11 mins2025-05-09 22:58:33.492Z133.939° SE2025-05-09 23:03:33.492Z76.898° E29.676°2025-05-09 23:09:33.492Z15.889° NNE
11 mins2025-05-10 00:46:33.492Z215.501° SW2025-05-10 00:51:33.492Z283.243° WNW32.376°2025-05-10 00:57:33.492Z342.608° N
|